Location: Saint-Restitut
(44.3351°N, 4.7915°E)
Time: 15:55:07
(UTC+00:00)

CSL-04 Debris - Pass Details

Date: 26 February 2024
Orbit: 824 x 843 km, 98.8° (Epoch: 21 April)

Event Time Altitude Azimuth Distance (km) Brightness Sun altitude
Exits shadow 19:32:56 31° 165° (SSE) 1,403 5.1 -23.7°
Maximum altitude 19:35:36 89° 253° (WSW) 832 4.0 -24.2°
Drops below altitude 10° 19:41:00 10° 346° (NNW) 2,434 6.9 -25.1°
Sets 19:43:22 0° 346° (NNW) 3,371 7.7 -25.5°
